{"data":{"norad_id":65472,"epoch":"2026-05-24T14:55:28.036128Z","epoch_age_seconds":101536,"freshness":"FRESH","line1":"1 65472U 25195Q   26144.62185227  .00024029  00000+0  72054-3 0  9993","line2":"2 65472  53.1597 265.1773 0001510 106.4037 253.7132 15.34377391 41602","mean_motion":15.34377391,"eccentricity":0.000151,"inclination_deg":53.1597,"raan_deg":265.1773,"arg_perigee_deg":106.4037,"mean_anomaly_deg":253.7132,"bstar":0.00072054,"rev_number":4160,"period_min":93.84914092494,"perigee_km":461.73746272148,"apogee_km":463.80341676828,"semimajor_km":6840.9074397449,"source":"CELESTRAK","updated_at":"2026-05-25T13:38:20.814893Z"}}